Back to catalog

COSMOS 1823 DEB

AliveLEO
NORAD 39814·DEBRIS·🇷🇺 Russia

Launched Feb 20, 1987 from Plesetsk Cosmodrome

Loading…

Next Passes (next 24 hours)

TLE

StaleSource: Space-Track

Epoch: Sep 4, 2026, 10:14 UTC

1 39814U 87020EN  26247.42666066  .00000014  00000-0  22548-3 0  9998
2 39814  73.6106 274.3000 0025191  70.1805 290.1952 12.43174645555892

Track COSMOS 1823 DEB in real time with AllMySat

Download on the App Store